Terminal Aerodrome Forecast
Issued by NWS

Home | Current Version | Previous Version | Text Only | Print | Product List | Glossary On
Versions: 1 2 3 4 5 6 7 8 9 10 11 12 13 14 15 16 17 18 19 20 21 22 23
000
FTUS41 KBGM 222100 AAA
TAFELM
TAF AMD
KELM 222111Z 2221/2318 03004KT P6SM SCT025 BKN050
     FM230400 09002KT 3SM BR BKN012
     FM230600 10003KT 1SM BR OVC005
     FM231400 10004KT P6SM BKN015=

USA.gov is the U.S. government's official web portal to all federal, state and local government web resources and services.